FLOCK4S #1 1 70301C 21006A 21024.66614604 .00096188 00000-0 55218-2 0 00 2 70301 97.5083 88.3414 0010024 224.7380 135.5791 15.12545266 15 KEPLER #1 1 70302C 21006B 21024.66615993 .00096041 00000-0 56493-2 0 07 2 70302 97.5162 88.3415 0007780 244.6566 115.7361 15.11685135 19 FLOCK4S #2 1 70303C 21006C 21024.66622706 .00096037 00000-0 55208-2 0 06 2 70303 97.5076 88.3414 0009882 225.6577 135.1001 15.12496862 14 KEPLER #2 1 70304C 21006D 21024.66624211 .00095893 00000-0 56350-2 0 08 2 70304 97.5168 88.3416 0007836 243.5714 117.2683 15.11720868 10 V-R3X 1 70305C 21006E 21024.66625831 .00096549 00000-0 57652-2 0 03 2 70305 97.5225 88.3417 0007037 262.1956 98.7323 15.11146297 16 FLOCK4S #3 1 70306C 21006F 21024.66631618 .00095871 00000-0 55207-2 0 05 2 70306 97.5068 88.3415 0009703 226.8057 134.4370 15.12436735 11 FLOCK4S #4 1 70307C 21006G 21024.66640993 .00095695 00000-0 55218-2 0 08 2 70307 97.5062 88.3415 0009492 228.1922 133.5605 15.12365653 18 KEPLER #3 1 70308C 21006H 21024.66698169 .00094565 00000-0 54642-2 0 02 2 70308 97.5174 88.3426 0009373 229.3110 135.5523 15.12316811 18 FLOCK4S #5 1 70309C 21006J 21024.66711016 .00094390 00000-0 55433-2 0 05 2 70309 97.5061 88.3417 0007753 242.3769 123.1852 15.11743635 14 KEPLER #4 1 70310C 21006K 21024.66712984 .00094296 00000-0 54376-2 0 02 2 70310 97.5165 88.3428 0009609 228.0594 137.6099 15.12388168 12 FLOCK4S #6 1 70311C 21006L 21024.66720160 .00094220 00000-0 55446-2 0 04 2 70311 97.5067 88.3418 0007570 244.3006 121.7589 15.11672126 14 FLOCK4S #7 1 70312C 21006M 21024.66728609 .00094064 00000-0 55447-2 0 08 2 70312 97.5074 88.3419 0007417 245.9556 120.5636 15.11612260 14 FLOCK4S #8 1 70313C 21006N 21024.66738215 .00093887 00000-0 55435-2 0 02 2 70313 97.5082 88.3421 0007266 247.6244 119.4174 15.11553108 11 FLOCK4S #9 1 70314C 21006P 21024.66747475 .00093717 00000-0 55408-2 0 03 2 70314 97.5091 88.3422 0007144 248.9938 118.5518 15.11505552 14 FLOCK4S #10 1 70315C 21006Q 21024.66756387 .00093553 00000-0 55368-2 0 09 2 70315 97.5101 88.3424 0007047 250.0246 118.0058 15.11469629 15 FLOCK4S #11 1 70316C 21006R 21024.66770507 .00093294 00000-0 55270-2 0 04 2 70316 97.5117 88.3428 0006936 250.9952 117.8035 15.11434150 19 FLOCK4S #12 1 70317C 21006S 21024.66798979 .00092774 00000-0 54943-2 0 06 2 70317 97.5150 88.3436 0006889 250.2516 120.0961 15.11446832 16 KEPLER #5 1 70318C 21006T 21024.66806271 .00092578 00000-0 53273-2 0 09 2 70318 97.5110 88.3429 0009924 227.3360 143.4083 15.12461566 16 FLOCK4S #13 1 70319C 21006U 21024.66809280 .00092592 00000-0 54707-2 0 02 2 70319 97.5173 88.3442 0007059 247.5464 123.3617 15.11530689 19 FLOCK4S #14 1 70320C 21006V 21024.66817729 .00092439 00000-0 54543-2 0 09 2 70320 97.5180 88.3445 0007161 246.0473 125.3205 15.11578562 17 KEPLER #6 1 70321C 21006W 21024.66824442 .00092237 00000-0 53166-2 0 06 2 70321 97.5097 88.3428 0009730 228.3399 143.3929 15.12402917 14 FLOCK4S #15 1 70322C 21006X 21024.66826757 .00092276 00000-0 54356-2 0 03 2 70322 97.5188 88.3447 0007301 244.2702 127.5888 15.11638424 15 FLOCK4S #16 1 70323C 21006Y 21024.66834859 .00092130 00000-0 54178-2 0 07 2 70323 97.5193 88.3450 0007454 242.5826 129.7172 15.11698519 14 KEPLER #7 1 70324C 21006Z 21024.66906387 .00090678 00000-0 53214-2 0 09 2 70324 97.5088 88.3431 0007587 240.1312 136.0594 15.11773032 11 FLOCK4S #17 1 70325C 21006AA 21024.66909164 .00090804 00000-0 52406-2 0 09 2 70325 97.5195 88.3463 0009618 229.3976 146.9446 15.12359106 17 FLOCK4S #18 1 70326C 21006AB 21024.66918424 .00090639 00000-0 52203-2 0 00 2 70326 97.5189 88.3462 0009891 228.4575 148.3885 15.12430792 12 FLOCK4S #19 1 70327C 21006AC 21024.66926988 .00090486 00000-0 52025-2 0 07 2 70327 97.5183 88.3462 0010122 227.7347 149.5771 15.12490640 10 KEPLER #8 1 70328C 21006AD 21024.66933817 .00090167 00000-0 53090-2 0 06 2 70328 97.5105 88.3438 0007184 242.6660 135.0170 15.11655960 16 FLOCK4S #20 1 70329C 21006AE 21024.66939257 .00090265 00000-0 51790-2 0 05 2 70329 97.5172 88.3460 0010410 226.9491 151.0302 15.12563095 12 FLOCK4S #21 1 70330C 21006AF 21024.66949789 .00090074 00000-0 51608-2 0 04 2 70330 97.5162 88.3458 0010606 226.4899 152.0623 15.12611460 11 FLOCK4S #22 1 70331C 21006AG 21024.66961132 .00089867 00000-0 51436-2 0 08 2 70331 97.5150 88.3455 0010759 226.2081 152.9611 15.12647841 14 FLOCK4S #23 1 70332C 21006AH 21024.66989604 .00089337 00000-0 51112-2 0 06 2 70332 97.5118 88.3447 0010841 226.3645 154.3535 15.12661602 11 FLOCK4S #24 1 70333C 21006AJ 21024.67000021 .00089141 00000-0 51034-2 0 01 2 70333 97.5108 88.3443 0010759 226.7034 154.5813 15.12638590 12 FLOCK4S #25 1 70334C 21006AK 21024.67010322 .00088935 00000-0 51055-2 0 00 2 70334 97.5087 88.3436 0010391 227.7815 154.0634 15.12543837 16 KEPLER #9 1 70335C 21006AL 21024.67016225 .00088757 00000-0 52343-2 0 02 2 70335 97.5180 88.3474 0006887 242.9818 139.1847 15.11600772 11 FLOCK4S #26 1 70336C 21006AM 21024.67019928 .00088750 00000-0 51035-2 0 06 2 70336 97.5079 88.3433 0010164 228.4958 153.8716 15.12484961 10 FLOCK4S #27 1 70337C 21006AN 21024.67028377 .00088586 00000-0 51028-2 0 04 2 70337 97.5073 88.3431 0009935 229.2096 153.6175 15.12425760 18 KEPLER #10 1 70338C 21006AP 21024.67033007 .00088459 00000-0 51990-2 0 08 2 70338 97.5191 88.3482 0007280 240.0771 143.0025 15.11721246 12 KEPLER #11 1 70339C 21006AQ 21024.67102914 .00087243 00000-0 50369-2 0 02 2 70339 97.5193 88.3494 0009656 230.5122 156.3704 15.12347083 16 FLOCK4S #28 1 70340C 21006AR 21024.67105924 .00087084 00000-0 51142-2 0 01 2 70340 97.5071 88.3432 0007318 238.7706 148.2749 15.11750129 13 FLOCK4S #29 1 70341C 21006AS 21024.67115183 .00086908 00000-0 51140-2 0 02 2 70341 97.5077 88.3435 0007046 239.9841 147.5652 15.11679602 15 KEPLER #12 1 70342C 21006AT 21024.67118539 .00086971 00000-0 50037-2 0 05 2 70342 97.5183 88.3492 0010154 229.4319 158.3007 15.12467834 12 FLOCK4S #30 1 70343C 21006AU 21024.67123863 .00086744 00000-0 51130-2 0 05 2 70343 97.5083 88.3439 0006816 241.0401 146.9814 15.11620076 12 FLOCK4S #31 1 70344C 21006AV 21024.67133817 .00086557 00000-0 51105-2 0 00 2 70344 97.5091 88.3444 0006587 242.1037 146.4594 15.11561304 18 FLOCK4S #32 1 70345C 21006AW 21024.67143655 .00086374 00000-0 51065-2 0 04 2 70345 97.5100 88.3449 0006401 242.9438 146.1545 15.11514279 15 FLOCK4S #33 1 70346C 21006AX 21024.67153493 .00086192 00000-0 51008-2 0 01 2 70346 97.5109 88.3455 0006258 243.5448 146.0887 15.11478905 13 KEPLER #13 1 70347C 21006AY 21024.67166456 .00086028 00000-0 49168-2 0 07 2 70347 97.5167 88.3490 0011137 228.0774 162.2618 15.12697061 18 FLOCK4S #34 1 70348C 21006AZ 21024.67203724 .00085289 00000-0 50438-2 0 08 2 70348 97.5159 88.3490 0006286 241.9987 150.3679 15.11504810 12 FLOCK4S #35 1 70349C 21006BA 21024.67211826 .00085147 00000-0 50302-2 0 04 2 70349 97.5166 88.3496 0006417 241.1462 151.6611 15.11541080 13 FLOCK4S #36 1 70350C 21006BB 21024.67220738 .00084993 00000-0 50143-2 0 09 2 70350 97.5172 88.3502 0006595 240.1278 153.1644 15.11589130 12 KEPLER #14 1 70351C 21006BC 21024.67225831 .00085129 00000-0 48448-2 0 06 2 70351 97.5095 88.3451 0011798 227.9916 165.5770 15.12842601 16 KEPLER #15 1 70352C 21006BD 21024.67236363 .00085077 00000-0 48322-2 0 02 2 70352 97.5074 88.3437 0012098 227.8008 166.3406 15.12910846 15 KEPLER #16 1 70353C 21006BE 21024.67248169 .00084209 00000-0 48443-2 0 00 2 70353 97.5092 88.3449 0010232 230.4614 164.3224 15.12471745 16 NANORACKS #1 1 70354C 21006BF 21024.67262637 .00085532 00000-0 50034-2 0 06 2 70354 97.5033 88.3408 0007780 235.4980 160.0722 15.11888219 15 EXOPORT-2 #1 1 70355C 21006BG 21024.67291225 .00083521 00000-0 48691-2 0 04 2 70355 97.5166 88.3508 0008267 233.8423 163.2849 15.12009319 11 EXOPORT-2 #2 1 70356C 21006BH 21024.67351410 .00082944 00000-0 47390-2 0 01 2 70356 97.5199 88.3545 0011292 230.2988 170.1024 15.12708286 19 NANORACKS #2 1 70357C 21006BJ 21024.67389026 .00081892 00000-0 47327-2 0 07 2 70357 97.5180 88.3536 0009585 232.2621 170.1853 15.12313153 13 NANORACKS #3 1 70358C 21006BK 21024.67418539 .00081428 00000-0 46762-2 0 07 2 70358 97.5166 88.3527 0010545 231.6375 172.4154 15.12532412 15 NANORACKS #4 1 70359C 21006BL 21024.67432313 .00081178 00000-0 46550-2 0 01 2 70359 97.5155 88.3519 0010768 231.6165 173.1854 15.12582730 12 NANORACKS #5 1 70360C 21006BM 21024.67445738 .00081022 00000-0 46345-2 0 08 2 70360 97.5146 88.3512 0011148 231.5409 173.9913 15.12668703 19 EXOPORT-2 #3 1 70361C 21006BN 21024.67450947 .00081385 00000-0 46351-2 0 06 2 70361 97.5078 88.3442 0011803 231.2786 174.5361 15.12817973 18 EXOPORT-2 #4 1 70362C 21006BP 21024.67462521 .00080893 00000-0 46166-2 0 05 2 70362 97.5064 88.3427 0011496 231.5752 174.8689 15.12747384 15 EXOPORT-2 #5 1 70363C 21006BQ 21024.67474095 .00080578 00000-0 45988-2 0 06 2 70363 97.5065 88.3428 0011490 231.7237 175.3500 15.12745594 11 NANORACKS #6 1 70364C 21006BR 21024.67494581 .00080096 00000-0 45910-2 0 09 2 70364 97.5109 88.3476 0010844 232.2127 175.9761 15.12597855 10 NANORACKS #7 1 70365C 21006BS 21024.67529882 .00079518 00000-0 45810-2 0 09 2 70365 97.5088 88.3452 0010079 232.7698 177.3391 15.12423465 19 EXOPORT-2 #6 1 70366C 21006BT 21024.67571317 .00078575 00000-0 46572-2 0 08 2 70366 97.5075 88.3436 0005693 233.6083 178.7544 15.11428655 12 NANORACKS #8 1 70367C 21006BU 21024.67597590 .00078205 00000-0 45825-2 0 00 2 70367 97.5091 88.3456 0007473 233.0571 180.7351 15.11832357 14 NANORACKS #9 1 70368C 21006BV 21024.67620044 .00077818 00000-0 45818-2 0 03 2 70368 97.5099 88.3468 0006728 232.6126 182.4013 15.11663308 11 EXOPORT-2 #7 1 70369C 21006BW 21024.67647706 .00077234 00000-0 46075-2 0 06 2 70369 97.5151 88.3546 0004690 230.2665 186.2531 15.11198811 15 CAPELLA-3 WHITNEY 1 70370C 21006BX 21024.67655461 .00077823 00000-0 45199-2 0 05 2 70370 97.5145 88.3539 0008837 233.1993 183.7422 15.12141975 16 EXOPORT-2 #8 1 70371C 21006BY 21024.67659280 .00077017 00000-0 45828-2 0 03 2 70371 97.5159 88.3562 0005096 230.3149 186.8346 15.11290416 17 EXOPORT-1 #1 1 70372C 21006BZ 21024.67668655 .00077007 00000-0 45066-2 0 03 2 70372 97.5111 88.3486 0007668 232.8829 184.7751 15.11876949 18 IQPS-2 1 70373C 21006CA 21024.67684164 .00077450 00000-0 44901-2 0 06 2 70373 97.5119 88.3500 0009113 233.3820 185.1204 15.12204992 10 CAPELLA-4 WHITNEY 1 70374C 21006CB 21024.67701410 .00077110 00000-0 44590-2 0 08 2 70374 97.5124 88.3509 0009504 233.6680 185.7726 15.12294326 12 SHERPA-FX1 1 70375C 21006CC 21024.67807891 .00074926 00000-0 43468-2 0 04 2 70375 97.5116 88.3499 0009003 233.5478 191.6852 15.12181789 14 EXOPORT-1 #2 1 70376C 21006CD 21024.67815646 .00074749 00000-0 43513-2 0 06 2 70376 97.5144 88.3562 0008500 232.5826 193.0735 15.12063150 11 ION MKII SCV002 1 70377C 21006CE 21024.67829072 .00074338 00000-0 43235-2 0 00 2 70377 97.5141 88.3558 0008629 233.0308 193.3552 15.12095232 13 RIDESHARE FLYAWAY HARDWA 1 70378C 21006CF 21024.68855576 .00063214 00000-0 35255-2 0 04 2 70378 97.5136 88.3629 0014499 251.4483 230.8012 15.13543962 14 TOP STARLINK 1 70379C 21006CG 21024.68855576 .00064062 00000-0 35725-2 0 09 2 70379 97.5135 88.3630 0014504 251.4650 230.7845 15.13545415 17 MIDDLE STARLINKS 1 70380C 21006CH 21024.68855576 .00064066 00000-0 35719-2 0 08 2 70380 97.5132 88.3635 0014531 251.5815 230.6681 15.13554580 15 BOTTOM STARLINK 1 70381C 21006CJ 21024.68855576 .00064071 00000-0 35712-2 0 08 2 70381 97.5128 88.3641 0014560 251.7016 230.5481 15.13564064 10 TENSION ROD 045 1 70382C 21006CK 21024.68856387 .00063327 00000-0 34658-2 0 01 2 70382 97.5109 88.3671 0015573 262.9974 219.2809 15.14201543 14 TENSION ROD 135 1 70383C 21006CL 21024.68856387 .00063355 00000-0 34602-2 0 02 2 70383 97.5113 88.3666 0017522 256.6559 225.6529 15.14246847 15 TENSION ROD 225 1 70384C 21006CM 21024.68856387 .00062930 00000-0 35553-2 0 07 2 70384 97.5099 88.3687 0014483 241.7366 240.5735 15.13082003 12 TENSION ROD 315 1 70385C 21006CN 21024.68856387 .00062896 00000-0 35631-2 0 06 2 70385 97.5096 88.3693 0012114 246.5098 235.7706 15.13012194 19